Location: Fauquembergues
(50.6005°N, 2.0987°E)
Time: 10:33:58
(UTC+00:00)

Lacrosse 5 - Pass Details

Date: 14 July 2020
Orbit: 717 x 720 km, 57.0° (Epoch: 02 August)

Event Time Altitude Azimuth Distance (km) Brightness Sun altitude
Exits shadow 01:49:49 - 259° (W) 2,585 4.4 -13.6°
Reaches altitude 10° 01:50:51 10° 262° (W) 2,202 4.0 -13.6°
Maximum altitude 01:55:49 54° 340° (NNW) 870 2.5 -13.2°
Drops below altitude 10° 02:00:49 10° 58° (ENE) 2,209 5.4 -12.8°
Sets 02:03:15 0° 63° (ENE) 3,131 6.2 -12.6°
